Météo

Actualisé à 8h00, Lille

icon

T : 17 °C / H : 88 %
Pression : 1022 Hpa
Vent de nord : 7 Km/h
Brume
Nuages épars à 1300 pieds
Nuages fragmentés à 500 pieds

2024/07/24 07:00 LFQQ 240700Z AUTO 02004KT 9999 SCT013 17/15 Q1022 TEMPO 4000 BR BKN005

Mots clés

Internet web infographiste flyers illustrateur graphiste webmaster PAO assistance informatique logo image invitation affiche création réalisation conception site vitrine voeux carte visite publication publicité impression plaquette charte graphique identité visuelle maintenance freelance


CSS Valide ! Valid HTML 5.0

Bienvenue

Ce site a été réalisé afin de vous faire découvrir mon métier, mes compétences, mon savoir-faire et bien entendu mes services. Vous s'y trouverez également une selection de logiciels et de liens divers et variés.



Infographiste - Web Designer

Je réalise votre logo - votre charte graphique.
Je peux également réaliser votre affiche - flyer - plaquette commerciale - catalogue publicitaire - espace pub - carte d'invitation - carte de visite - carte de fidélité - pochette cd-room ou encore votre présentation cd-room - site internet - maquette d'objet publicitaire.

Si mes services vous intéressent n'hésitez pas à me contacter.